Weather History for KMTH - July, 2013

Change the Weather History Date:

Friday, July 19, 2013

  Actual Average Record
Temperature  
Mean Temperature 85 °F 85 °F  
Max Temperature 89 °F 91 °F 95 °F (1997)
Min Temperature 81 °F 79 °F 75 °F (2011)
Degree Days  
Heating Degree Days 0 0  
Month to date heating degree days 0 0  
Since 1 June heating degree days 0 0  
Since 1 July heating degree days 0 0  
Cooling Degree Days 20 20  
Month to date cooling degree days 366 380  
Year to date cooling degree days 2812 2517  
Since 1 June cooling degree days 982 974  
Growing Degree Days 34 (Base 50)    
Moisture  
Dew Point 75 °F    
Average Humidity 75    
Maximum Humidity 85    
Minimum Humidity 65    
Precipitation  
Precipitation 0.00 in 0.15 in 0.46 in (2006)
Month to date precipitation 6.69 2.48  
Year to date precipitation 35.70 20.03  
Snow  
Snow 0.00 in - - ()
Month to date snowfall 0.0  
Since 1 June snowfall 0.0  
Since 1 July snowfall 0.0  
Snow Depth 0.00 in    
Sea Level Pressure  
Sea Level Pressure 30.07 in    
Wind  
Wind Speed 7 mph (ESE)    
Max Wind Speed 13 mph    
Max Gust Speed 21 mph    
Visibility 10 miles    
Events      
T = Trace of Precipitation, MM = Missing Value Source: NWS Daily Summary

Daily Weather History Graph

Daily Weather History Graph

Search for Another Location

Airport or City:

Trip Planner

Search our weather history database for the weather conditions in past years. The results will help you decide how hot, cold, wet, or windy it might be!

Date:

Astronomy

Jul. 19, 2013 Rise Set
Actual Time 6:46 AM EDT 8:14 PM EDT
Civil Twilight 6:21 AM EDT 8:39 PM EDT
Nautical Twilight 5:51 AM EDT 9:09 PM EDT
Astronomical Twilight 5:20 AM EDT 9:40 PM EDT
Moon 5:16 PM EDT (7/19) 3:24 AM EDT (7/19)
Length of Visible Light 14h 18m
Length of Day
13h 28m
Waxing Gibbous, 86% of the Moon is Illuminated
Jul 19
Waxing Gibbous
Jul 22
Full
Jul 29
Last Quarter
Aug 6
New
Aug 14
First Quarter

Hourly Weather History & Observations

Time (EDT) Temp. Heat Index Dew Point Humidity Pressure Visibility Wind Dir Wind Speed Gust Speed Precip Events Conditions
12:53 AM 81.0 °F 86.7 °F 75.0 °F 82% 30.07 in 10.0 mi ESE 6.9 mph - N/A   Clear
1:53 AM 81.0 °F 86.2 °F 73.9 °F 79% 30.07 in 10.0 mi East 5.8 mph - N/A   Clear
2:53 AM 82.0 °F 88.6 °F 75.0 °F 79% 30.06 in 10.0 mi East 6.9 mph - N/A   Partly Cloudy
3:53 AM 82.0 °F 87.9 °F 73.9 °F 76% 30.06 in 10.0 mi East 4.6 mph - N/A   Clear
4:53 AM 82.0 °F 87.9 °F 73.9 °F 76% 30.06 in 10.0 mi East 3.5 mph - N/A   Clear
5:53 AM 82.0 °F 87.9 °F 73.9 °F 76% 30.06 in 10.0 mi East 5.8 mph - N/A   Partly Cloudy
6:53 AM 82.0 °F 87.9 °F 73.9 °F 76% 30.07 in 10.0 mi East 6.9 mph - N/A   Clear
7:53 AM 82.0 °F 87.9 °F 73.9 °F 76% 30.08 in 10.0 mi ESE 8.1 mph - N/A   Clear
8:53 AM 82.9 °F 90.2 °F 75.0 °F 77% 30.09 in 10.0 mi ESE 6.9 mph - N/A   Partly Cloudy
9:53 AM 82.9 °F 90.2 °F 75.0 °F 77% 30.10 in 10.0 mi ESE 6.9 mph - N/A   Scattered Clouds
10:53 AM 84.0 °F 91.2 °F 73.9 °F 72% 30.11 in 10.0 mi ESE 6.9 mph 16.1 mph N/A   Partly Cloudy
11:53 AM 84.9 °F 92.1 °F 73.9 °F 69% 30.11 in 10.0 mi ESE 8.1 mph - N/A   Clear
12:53 PM 86.0 °F 93.8 °F 73.9 °F 67% 30.09 in 10.0 mi ESE 6.9 mph - N/A   Clear
1:53 PM 87.1 °F 97.3 °F 75.9 °F 69% 30.08 in 10.0 mi East 8.1 mph - N/A   Partly Cloudy
2:53 PM 88.0 °F 98.5 °F 75.9 °F 67% 30.07 in 10.0 mi ESE 9.2 mph 16.1 mph N/A   Scattered Clouds
3:53 PM 87.1 °F 96.3 °F 75.0 °F 67% 30.06 in 10.0 mi East 10.4 mph 18.4 mph N/A   Scattered Clouds
4:53 PM 87.1 °F 97.3 °F 75.9 °F 69% 30.05 in 9.0 mi East 10.4 mph 17.3 mph N/A   Mostly Cloudy
5:53 PM 86.0 °F 96.0 °F 75.9 °F 72% 30.03 in 8.0 mi ESE 8.1 mph - N/A   Scattered Clouds
6:53 PM 86.0 °F 95.1 °F 75.0 °F 70% 30.03 in 10.0 mi ESE 8.1 mph - N/A   Partly Cloudy
7:53 PM 84.0 °F 91.9 °F 75.0 °F 74% 30.04 in 7.0 mi East 5.8 mph - N/A   Partly Cloudy
8:53 PM 84.0 °F 91.9 °F 75.0 °F 74% 30.07 in 10.0 mi East 5.8 mph - N/A   Scattered Clouds
9:53 PM 84.0 °F 92.6 °F 75.9 °F 76% 30.09 in 10.0 mi East 6.9 mph - N/A   Partly Cloudy
10:53 PM 84.0 °F 92.6 °F 75.9 °F 76% 30.10 in 10.0 mi Variable 4.6 mph - N/A   Scattered Clouds
11:53 PM 82.9 °F 90.8 °F 75.9 °F 79% 30.10 in 10.0 mi ESE 5.8 mph - N/A   Clear